AirNav   Bose Proflight and A20 aviation headeets
 
 308 users online  

4V8 Deerfield Valley Regional Airport
West Dover, Vermont, USA

GOING TO WEST DOVER?


FAA INFORMATION EFFECTIVE 31 JANUARY 2019

Location

FAA Identifier: 4V8
Lat/Long: 42-55-37.6880N / 072-51-56.3530W
42-55.628133N / 072-51.939217W
42.9271356 / -72.8656536
(estimated)
Elevation: 1953 ft. / 595.3 m (surveyed)
Variation: 15W (1985)
From city: 1 mile SW of WEST DOVER, VT
Time zone: UTC -5 (UTC -4 during Daylight Saving Time)
Zip code: 05356

Airport Operations

Airport use: Open to the public
Activation date: 11/1982
Control tower: no
ARTCC: BOSTON CENTER
FSS: BURLINGTON FLIGHT SERVICE STATION
NOTAMs facility: BTV (NOTAM-D service available)
Attendance: UNATTND
Wind indicator: lighted
Segmented circle: no
Lights: SS-SR
Landing fee: yes

Airport Communications

CTAF/UNICOM: 122.8
WX ASOS at DDH (17 nm W): 135.925 (802-442-6059)
WX ASOS at AQW (19 nm SW): 134.775 (413-664-6658)
  • APCH/DEP SVC PRVDD BY BOSTON ARTCC ON FREQS 123.75/338.2 (GARDNER RCAG).

Nearby radio navigation aids

VOR radial/distance  VOR name  Freq  Var
CAMr115/21.4CAMBRIDGE VOR/DME115.0014W
EENr302/26.5KEENE VORTAC109.4014W
CTRr019/38.3CHESTER VOR/DME115.1013W

 
NDB name  Hdg/Dist  Freq  Var  ID
CLAREMONT235/34.223316WCNH -.-. -. ....

Airport Services

Parking: hangars and tiedowns

Runway Information

Runway 1/19

Dimensions: 2650 x 75 ft. / 808 x 23 m
Surface: asphalt, in excellent condition
Runway edge lights: medium intensity
THLD LIGHTS ALL MISSING
RUNWAY 1  RUNWAY 19
Latitude: 42-55.413750N42-55.843583N
Longitude: 072-51.887917W072-51.989667W
Elevation: 1948.0 ft.1950.0 ft.
Traffic pattern: leftleft
Runway heading: 005 magnetic, 350 true185 magnetic, 170 true
Markings: nonprecision, in good conditionbasic, in good condition
Touchdown point: yes, no lightsno, no lights
Obstructions: 61 ft. trees, 662 ft. from runway, 54 ft. right of centerline, 7:1 slope to clear29 ft. trees, 945 ft. from runway, 160 ft. left of centerline, 25:1 slope to clear

Airport Ownership and Management from official FAA records

Ownership: Privately-owned
Owner: DEERFIELD VALLEY REG AIRPORT, LLC
HERMITAGE REALTY ESTATE HOLDING CO., 25 HANDLE ROAD
WEST DOVER, VT 05356
Phone (802) 490-0775
Manager: JIM BARNES
P.O. BOX 2210, 69 AIRPORT ROAD
WEST DOVER, VT 05356
Phone (802) 490-0775

Airport Operational Statistics

Aircraft based on the field: 7
Single engine airplanes: 5
Multi engine airplanes: 2
    
Aircraft operations: avg 59/week *
58% local general aviation
42% transient general aviation
* for 12-month period ending 15 September 2015

Additional Remarks

NEWLY PAVED RYS & RAMP AREA.
RENNOVATED TERMINAL BUILDING WITH LOUNGE AREA AND OVERNIGHT ACCOMODATIONS.
RENTAL CAR AVBL 802-447-2203 OPT 4

Instrument Procedures

NOTE: All procedures below are presented as PDF files. If you need a reader for these files, you should download the free Adobe Reader.

NOT FOR NAVIGATION. Please procure official charts for flight.
FAA instrument procedures published for use from 31 January 2019 at 0901Z to 28 February 2019 at 0900Z.

 
IAPs - Instrument Approach Procedures
RNAV (GPS) RWY 01   download (163KB)
NOTE: Special Take-Off Minimums/Departure Procedures apply   download (180KB)

Other nearby airports with instrument procedures:

KDDH - William H Morse State Airport (17 nm W)
KAQW - Harriman-and-West Airport (19 nm SW)
0B5 - Turners Falls Airport (25 nm SE)
KEEN - Dillant-Hopkins Airport (26 nm E)
KVSF - Hartness State Airport (Springfield) (29 nm NE)
 
Loc | Ops | Rwys | IFR | FBO | Links
Com | Nav | Svcs | Stats | Notes
Area around 4V8 (Deerfield Valley Regional Airport)
 
Road maps at: MapQuest Bing Google
 
Aerial photo
WARNING: Photo may not be current or correct
Aerial photo of 4V8 (Deerfield Valley Regional Airport)
Photo by Guy Rouelle
Photo taken 23-May-2015
looking north.

Do you have a better or more recent aerial photo of Deerfield Valley Regional Airport that you would like to share? If so, please send us your photo.

 
Sectional chart

 
Airport distance calculator
Flying to Deerfield Valley Regional Airport? Find the distance to fly.

From to 4V8

Sunrise and sunset
Times for 17-Feb-2019
 Local
(UTC-5)
 Zulu
(UTC)
Morning civil twilight06:1811:18
Sunrise06:4711:47
Sunset17:2422:24
Evening civil twilight17:5322:53

Current date and time
Zulu (UTC)  17-Feb-2019 11:20:14
Local (UTC-5)  17-Feb-2019 06:20:14
 
METAR
KDDH 
17nm W 
171054Z AUTO 00000KT 10SM CLR M10/M14 A3007 RMK AO2 SLP195 T11001139
KAQW 
19nm SW 
171052Z AUTO 28005KT 10SM CLR M09/M13 A3008 RMK AO2 SLP198 T10891128
KEEN 
26nm E 
171056Z AUTO 34004KT 10SM CLR M09/M13 A3008 RMK AO2 SLP207 T10941128 FZRANO $
KVSF 
30nm NE 
171054Z AUTO 00000KT 10SM CLR M14/M16 A3010 RMK AO2 SLP204 I1000 T11441161
KORE 
34nm SE 
171052Z AUTO 32004KT 10SM CLR M09/M13 A3008 RMK AO2 SLP194 T10941133
TAF
KPSF 
35nm SW 
170525Z 1706/1806 32006KT P6SM SCT250 FM172100 25004KT P6SM SCT120 FM180000 VRB03KT P6SM BKN100 PROB30 1802/1806 3SM -SN OVC040
KRUT 
36nm N 
170520Z 1706/1806 28006KT P6SM SCT200 FM171400 34004KT P6SM SCT250 FM180300 08004KT P6SM BKN070 FM180500 10005KT P6SM OVC050
KGFL 
41nm NW 
170525Z 1706/1806 35004KT P6SM SCT250 FM171800 04005KT P6SM SCT200 FM180000 04005KT P6SM BKN110 FM180300 VRB03KT P6SM SCT050 OVC080 PROB30 1803/1806 2SM -SN OVC030
KALB 
42nm W 
170525Z 1706/1806 31005KT P6SM SCT250 FM171700 01005KT P6SM SCT200 FM172300 04005KT P6SM BKN110 FM180200 VRB03KT P6SM OVC080 PROB30 1802/1806 2SM -SN OVC030
NOTAMs
Click for the latest NOTAMs
NOTAMs are issued by the DoD/FAA and will open in a separate window not controlled by AirNav.

 

 
 

FBO, Fuel Providers, and Aircraft Ground Support

  
 Business Name 
 
 Contact 
 
 Services / Description 
 
Fuel Prices
 
Comments
  
Deerfield Valley Regional Airport 802-490-0775
no information available

If you are affiliated with Deerfield Valley Regional Airport and would like to show here your services, contact info, web link, logo, and more, click here
no prices available
 
   write
Update Fuel Prices
 

Where to Stay: Hotels, Motels, Resorts, B&Bs, Campgrounds

 The hotels featured here are reported to be very convenient to the Deerfield Valley Regional Airport. If your hotel/inn/B&B/resort is near the Deerfield Valley Regional Airport, provides convenient transportation, or is otherwise attractive to pilots, flight crews, and airport users, consider listing it here.
  
 Business Name 
 
 Contact 
 
 Services / Description 
 
Distance
 
Comments
  
Inn at Mt Snow 802-464-8388
toll-free 1-866-587-7669
[web site]
[email]
[Reservations]

Like us on facebook
A quaint and charming Inn located at the base of Mount Snow. The Inn features 14 rooms many with panaoramic views of the Green Mountains....Old fashion service for today's flyers.
More info and photos of Inn at Mt Snow
3 miles  
   write
Feature A Hotel
 

Would you like to see your business listed on this page?

 If your business provides an interesting product or service to pilots, flight crews, aircraft, or users of the Deerfield Valley Regional Airport, you should consider listing it here.  To start the listing process, click on the button below
 
Add a business
 

Other Pages about Deerfield Valley Regional Airport

deerfieldvalleyairport.com
aviation.vermont.gov/...
 
Update a link
 
Copyright © AirNav, LLC. All rights reserved. Privacy Policy  Contact